{"data":{"norad_id":68709,"intl_designator":"2026-081L","name":"STARLINK-37303","alt_names":[],"object_type":"PAYLOAD","status":"ACTIVE","operator":null,"country":"US","launch_date":"2026-04-14","launch_site_code":"AFETR","launch_vehicle":null,"mission":null,"orbit_class":"UNKNOWN","rcs_meters":null,"size_class":null,"mass_kg":null,"dimensions":null,"purposes":["comms"],"wikipedia_slug":null,"has_3d_model":false,"image_url":null,"decayed_at":null,"tle_current":{"epoch":"2026-05-25T00:30:24.541632Z","epoch_age_seconds":73308,"freshness":"FRESH","line1":"1 68709U 26081L   26145.02111738  .00032566  00000+0  59051-3 0  9992","line2":"2 68709  53.1591  39.9651 0000981 102.8779 257.2339 15.49340001  6421","mean_motion":15.49340001,"eccentricity":9.81e-5,"inclination_deg":53.1591,"raan_deg":39.9651,"arg_perigee_deg":102.8779,"mean_anomaly_deg":257.2339,"bstar":0.00059051,"rev_number":642,"period_min":92.942801390952,"perigee_km":417.98884998684,"apogee_km":419.32238069797,"semimajor_km":6796.7926153424,"source":"CELESTRAK","updated_at":"2026-05-25T13:38:21.999736Z"}}}